Flag for U.S.A. Weather past 2 weeks in Downey, California, U.S.A.

Now
73 °F

Sunny.


Feels Like: 75 °F
Forecast: 65 / 80 °F
Wind: 8 mph from Northwest

Location: Long Beach Airport

Current Time: Sep 19, 2014 at 7:28:54 PM

Latest Report: Sep 19, 2014 at 6:53 PM


Visibility: 10 mi

Pressure: 29.83 "Hg

Humidity: 69%

Dew point: 62 °F

Location of DowneyLocation

Historic Weather in Downey — Graph

°F

Downey temperature yesterday

Maximum temperature yesterday: 82 °F (at 3:53 PM)
Minimum temperature yesterday: 67 °F (at 5:53 AM)
Average temperature yesterday: 73 °F

Past Weeks' High & Low Weather Summary

 TemperatureHumidityPressure
High99 °F (Sep 14, 1:53 PM)90% (Sep 10, 1:53 AM)29.92 "Hg (Sep 10, 1:53 AM)
Low66 °F (Sep 10, 6:53 AM)25% (Sep 17, 2:53 PM)29.67 "Hg (Sep 14, 5:53 PM)
Average78 °F62%29.80 "Hg
* Reported Sep 4 5:53 PM — Sep 19 5:53 PM, Downey, Weather by CustomWeather, © 2014

Note: Actual official high and low records may vary slightly from our data, if they occured in-between our weather recording intervals... More about our weather records

Advertising

Downey weather history for previous 24 hours

 ConditionsComfort  
Time TempWeatherWind HumidityBarometerVisibility
5:53 PM
Sep 19
76 °FSunny.13 mph62%29.82 "Hg10 mi
4:53 PM77 °FSunny.7 mph58%29.82 "Hg10 mi
3:53 PM77 °FSunny.9 mph58%29.83 "Hg10 mi
2:53 PM78 °FSunny.8 mph54%29.84 "Hg10 mi
1:53 PM77 °FSunny.8 mph56%29.85 "Hg10 mi
12:53 PM77 °FSunny.10 mph58%29.88 "Hg10 mi
11:53 AM77 °FScattered clouds.9 mph56%29.89 "Hg10 mi
10:53 AM76 °FScattered clouds.3 mph58%29.90 "Hg10 mi
9:53 AM74 °FScattered clouds.3 mph64%29.90 "Hg10 mi
8:53 AM73 °FOvercast.5 mph69%29.91 "Hg10 mi
7:53 AM71 °FOvercast.No wind78%29.90 "Hg10 mi
6:53 AM70 °FOvercast.No wind81%29.88 "Hg10 mi
5:53 AM70 °FOvercast.No wind81%29.87 "Hg10 mi
4:53 AM70 °FOvercast.3 mph81%29.87 "Hg10 mi
3:53 AM69 °FMostly cloudy.3 mph84%29.86 "Hg10 mi
2:53 AM68 °FPassing clouds.No wind87%29.86 "Hg10 mi
1:53 AM69 °FClear.3 mph81%29.86 "Hg10 mi
12:53 AM70 °FClear.3 mph79%29.85 "Hg10 mi
11:53 PM
Sep 18
70 °FClear.6 mph76%29.86 "Hg10 mi
10:53 PM71 °FPassing clouds.6 mph71%29.85 "Hg8 mi
9:53 PM71 °FClear.7 mph76%29.85 "Hg10 mi
8:53 PM71 °FClear.7 mph78%29.85 "Hg10 mi
7:53 PM72 °FScattered clouds.10 mph76%29.83 "Hg10 mi
Weather by CustomWeather, © 2014

See weather overviewHow to use our weather pages